Location: Bittelbronn
(48.4454°N, 8.5870°E)
Time: 14:49:45
(UTC+00:00)

Cosmos 1953 - Pass Details

Date: 17 August 2024
Orbit: 504 x 523 km, 82.5° (Epoch: 18 September)

Event Time Altitude Azimuth Distance (km) Brightness Sun altitude
Exits shadow 01:32:54 11° 124° (SE) 1,681 4.8 -22.5°
Maximum altitude 01:35:08 17° 86° (E) 1,375 4.7 -22.3°
Drops below altitude 10° 01:37:39 10° 45° (NE) 1,763 6.0 -22.1°
Sets 01:40:23 0° 25° (NNE) 2,663 7.3 -21.8°
